SL-16 DEB

Satellite information

Favourite Embed

Satellite Type and Status

DEBRISIN ORBIT

Key statistics

Satellite SL-16 DEB at a glance.

Uptime

11881

Days in orbit

Revolutions

≈ 15.3

Per day

Orbit

LEO

Low Earth Orbit

Inclination

71.3

Latest

Satellite identification and parameters

Extended collection of information and parameters for SL-16 DEB.

Object identification

Identified? True

Debris? True

Object name: SL-16 DEB

International designator: 1992-093HD

Object number (NORAD): 22543

Object ID (CCSDS): 22543

Country: COMMONWEALTH OF INDEPENDENT STATES (CIS)

Current information (Y/N): Y

RCS size: SMALL

Orbital parameters

Period: 94.338 minutes

Inclination: 71.3364 deg

SMA: 6864.625 km

Apoapsis: 495.616 km

Periapsis: 477.364 km

RAAN: 191.7606 deg

Eccentricy: 0.0013294

Argument of periapsis: 351.2611 deg

Mean anomaly: 8.8338 deg

Mean motion: 15.26432184 rev/day

Mean motion (dot): 0.00200716 rev/day2

B* drag term: 0.0074733 1/REarth

Two-line elements (TLE)

Creation date: July 5, 2025, 5:45 p.m.

Reference frame: TEME

Reference center: EARTH

Epoch: July 5, 2025, 9:22 a.m. UTC

TLE line 0: 0 SL-16 DEB

TLE line 1: 1 22543U 92093HD 25186.39082368 .00200716 00000-0 74733-2 0 9992

TLE line 2: 2 22543 71.3364 191.7606 0013294 351.2611 8.8338 15.26432184674272

Live tracking on map

Real-time ground track for satellite SL-16 DEB.

In-orbit conjunctions

A list of the most updated potential collisions computed for object SL-16 DEB.

Target Orbit TCA Probability of collision Miss distance Type
OBJECT B SSO 2025-07-02 13:41:10 0.0006746803 243.0 (m) UNKNOWN
ESSA 1 (OT-3) SSO 2024-06-19 13:12:18 0.0008425913 277.0 (m) PAYLOAD

Associated space launch

Second generation ELING satellite

SL-16 DEB was lifted into orbit during the mission ‘Zenit-2 | Tselina-2 12’, on board a Zenit-2 space rocket.

The launch took place on Dec. 25, 1992, 5:56 a.m. from 45/1.

For more information about the launch, click the button.

Launch to space Zenit-2 | Tselina-2 12
Zenit-2 | Tselina-2 12

Agency: N/A

Status: Launch Successful

Launch date: Dec. 25, 1992, 5:56 a.m. UTC

Rocket: Zenit-2

Launch pad: 45/1

Location: Baikonur Cosmodrome, Republic of Kazakhstan

...

Latest news about this satellite

There are no fresh news available about this satellite. Check back as we update our databases every day.


Newsletter sign-up

Weekly statistics, charts and insights to help you stay on top of the space industry.